This demonstration page uses our WeatherBlox Daily Observations layout. Learn more.

Left ArrowRight Arrow

36.19886, -115.1175

Hourly Observations for December 17, 2015

Temp ( °F °C ) Dew Point ( °F °C ) Humidity (%) Winds ( mph kmh ) Pressure ( in mb ) Visibility ( mi km ) Precip ( " mm )
12:53 am 00:53 Clear 34 1.1 14 -10 44 44 Calm 30.25 1024 10 16 0.00 0.00
2:53 am 02:53 Clear 32 0 16 -8.9 52 52 WNW 5 7 30.27 1025 10 16 0.00 0.00
3:53 am 03:53 Clear 31 -0.6 15 -9.4 52 52 WNW 7 11 30.28 1025 10 16 0.00 0.00
4:53 am 04:53 Clear 30 -1.1 15 -9.4 54 54 Calm 30.31 1026 10 16 0.00 0.00
5:53 am 05:53 Clear 31 -0.6 16 -8.9 54 54 W 5 7 30.33 1027 10 16 0.00 0.00
6:53 am 06:53 Sunny 32 0 17 -8.3 54 54 Calm 30.34 1027 10 16 0.00 0.00
7:53 am 07:53 Sunny 34 1.1 17 -8.3 50 50 N 3 6 30.36 1028 10 16 0.00 0.00
8:53 am 08:53 Sunny 40 4.4 16 -8.9 38 38 NNE 3 6 30.37 1029 10 16 0.00 0.00
9:53 am 09:53 Sunny 42 5.6 16 -8.9 35 35 SE 3 6 30.37 1029 10 16 0.00 0.00
10:53 am 10:53 Sunny 44 6.7 16 -8.9 32 32 Calm 30.36 1028 10 16 0.00 0.00
11:53 am 11:53 Sunny 47 8.3 15 -9.4 28 28 ESE 5 7 30.32 1027 10 16 0.00 0.00
12:53 pm 12:53 Sunny 48 8.9 15 -9.4 27 27 SSE 5 7 30.30 1026 10 16 0.00 0.00
1:53 pm 13:53 Sunny 50 10 15 -9.4 25 25 E 6 9 30.28 1026 10 16 0.00 0.00
2:53 pm 14:53 Sunny 50 10 15 -9.4 25 25 E 6 9 30.28 1025 10 16 0.00 0.00
3:53 pm 15:53 Sunny 50 10 15 -9.4 25 25 E 3 6 30.27 1025 10 16 0.00 0.00
4:53 pm 16:53 Clear 47 8.3 15 -9.4 28 28 ESE 3 6 30.28 1025 10 16 0.00 0.00
5:53 pm 17:53 Clear 45 7.2 15 -9.4 30 30 Calm 30.29 1026 10 16 0.00 0.00
6:53 pm 18:53 Clear 45 7.2 17 -8.3 33 33 Calm 30.29 1026 10 16 0.00 0.00
7:53 pm 19:53 Clear 42 5.6 18 -7.8 38 38 NW 3 6 30.31 1026 10 16 0.00 0.00
8:53 pm 20:53 Clear 39 3.9 19 -7.2 45 45 NW 3 6 30.32 1027 10 16 0.00 0.00
9:53 pm 21:53 Clear 38 3.3 19 -7.2 46 46 NW 5 7 30.32 1027 10 16 0.00 0.00
10:53 pm 22:53 Clear 38 3.3 20 -6.7 48 48 WNW 7 11 30.32 1027 10 16 0.00 0.00
11:53 pm 23:53 Clear 36 2.2 19 -7.2 50 50 WNW 5 7 30.30 1026 10 16 0.00 0.00

Powered by AerisWeather